Dewpoint
61 63 62 61 62 47 33 33 31 35 34 32 32 32 31 34 36 32 31 31 30 29 30 27 26 27 29 31 35 43 44 39 40 35 42 59 63 64 63 63 62 64 63 64 66 69 69 71 71 71 71 71 70 71 72 72 72 72 72 72 72 72 72 71 71 71 70 71 71 71 71 71 70 70 70 69 68 67 66 65 65 66 68 69 69 69 69 68 68 69 69 69 69 69 69 69 69
62 62 63 63 59 61 47 34 33 32 33 32 31 31 30 31 32 31 30 30 28 29 29 28 27 25 26 29 41 43 41 46 52 50 58 63 64 64 64 63 62 63 64 65 65 66 66 69 71 71 71 71 70 71 71 72 72 72 72 72 72 72 72 71 71 70 70 71 71 70 71 70 70 70 70 69 68 66 65 65 65 65 67 69 69 69 68 68 68 68 68 69 68 68 69 69 70
62 62 63 63 62 56 55 39 32 31 32 31 30 31 29 29 30 28 27 28 30 29 28 26 25 26 26 34 34 37 39 53 57 58 59 64 63 64 64 63 63 63 64 64 65 65 66 68 71 71 71 70 71 71 71 71 72 72 72 72 72 71 71 71 71 71 72 71 71 71 71 70 70 70 69 69 68 66 65 65 65 64 66 69 69 69 69 68 68 68 68 69 69 69 69 69 69
62 63 60 61 55 58 51 49 32 30 31 32 30 31 30 29 27 29 30 32 30 27 25 23 24 36 40 40 40 48 44 50 56 59 59 62 61 63 63 63 64 63 65 65 64 64 66 69 71 71 70 70 71 71 71 71 71 72 72 72 72 72 71 71 71 71 71 71 71 71 71 71 70 70 69 68 68 67 66 65 65 65 65 66 69 68 68 68 68 68 68 68 68 68 68 68 69
62 63 61 58 56 49 50 46 38 30 28 29 28 26 28 27 28 31 31 32 25 23 23 24 24 42 45 45 47 37 52 56 56 59 60 62 64 62 64 63 63 63 65 64 64 65 66 70 71 71 70 70 71 71 71 71 71 72 72 72 72 72 71 71 71 71 71 71 71 71 71 71 70 70 69 69 68 67 66 66 65 65 64 65 68 68 68 68 67 68 68 68 68 68 68 68 69
62 62 62 59 52 57 50 43 38 33 30 27 25 25 26 28 30 33 32 30 25 22 23 24 29 33 39 51 53 50 57 54 58 58 61 61 64 64 64 64 63 63 65 65 65 65 66 71 71 71 71 70 70 71 71 71 71 71 72 72 72 72 72 71 71 72 71 71 71 71 71 71 70 70 70 69 68 67 66 66 66 65 64 64 67 68 68 68 67 68 67 68 68 68 68 69 69
61 60 59 57 54 55 46 44 42 36 31 26 25 23 25 30 33 33 32 31 28 23 24 20 24 34 39 47 51 56 59 61 59 60 62 63 64 64 64 64 64 64 65 65 65 65 66 70 70 71 71 71 69 70 71 71 71 72 72 72 72 72 72 71 71 71 71 71 71 71 70 70 70 70 70 69 68 66 66 65 66 66 64 63 63 65 68 68 68 68 68 68 68 68 68 69 70
61 58 55 53 47 48 44 45 45 38 38 27 26 24 26 33 36 34 33 32 30 28 24 22 26 34 38 48 46 56 59 61 62 63 63 63 63 64 64 63 63 63 66 66 66 66 70 70 70 70 71 71 70 69 69 71 71 71 72 72 72 71 72 71 71 71 71 71 71 71 70 70 70 70 70 69 67 66 66 66 65 65 65 63 63 64 67 69 69 68 67 67 68 68 68 68 68
59 58 55 53 46 47 45 44 45 43 39 31 31 30 40 37 37 36 33 33 32 27 26 24 22 25 40 38 42 57 60 63 62 65 63 64 64 64 63 62 62 64 66 66 65 68 69 70 70 70 70 70 70 70 69 70 70 71 71 72 72 71 72 71 71 71 71 71 71 71 71 71 70 71 70 68 67 66 65 65 65 65 65 64 62 63 65 69 68 68 67 67 67 67 68 67 68
57 57 51 51 50 42 45 46 44 47 44 42 42 35 39 40 38 38 36 33 32 31 28 23 24 23 32 42 44 55 59 64 64 63 64 64 63 63 62 62 63 65 66 66 66 68 69 70 69 69 69 69 69 70 69 69 69 70 71 72 72 72 71 71 71 71 71 71 71 71 71 71 71 70 70 69 67 66 65 65 65 65 65 65 63 63 65 69 68 67 67 67 67 67 67 67 68
52 55 55 48 44 43 42 43 45 47 45 46 47 47 46 43 41 40 38 34 32 33 33 26 40 30 33 44 51 59 63 63 63 62 64 64 64 62 62 62 63 65 65 67 67 68 68 70 70 69 69 69 69 68 68 68 68 70 71 72 72 71 71 71 71 71 71 71 71 71 70 71 70 70 70 69 68 67 66 64 64 64 65 65 63 63 64 68 67 67 67 67 67 67 67 67 67
50 51 51 45 44 43 45 44 44 46 47 47 47 50 52 48 46 42 39 35 35 35 34 30 27 33 36 47 52 58 61 64 64 64 64 64 63 62 61 62 64 65 66 67 68 69 69 69 70 70 68 67 67 67 67 67 69 70 71 71 71 71 71 71 71 71 71 71 71 71 71 71 71 70 70 69 68 67 67 66 64 63 64 64 63 63 63 64 66 67 66 66 66 66 67 66 66
52 51 49 47 45 46 47 44 44 42 46 48 48 50 53 49 48 46 43 40 38 36 32 32 28 44 32 40 48 56 61 62 64 64 65 64 63 62 63 63 64 65 66 68 69 68 69 68 69 68 68 67 66 66 67 68 69 70 71 71 71 71 70 70 70 71 71 71 70 70 71 70 70 70 70 69 68 68 67 66 65 63 63 63 64 63 63 62 63 66 66 66 66 66 66 66 66
51 51 50 45 48 46 46 45 47 43 42 48 51 53 53 50 52 50 47 41 39 37 34 30 32 39 37 35 51 54 59 63 62 65 65 65 64 64 64 64 65 65 68 68 68 69 69 68 68 69 68 67 66 68 68 69 69 70 70 70 70 70 70 70 70 70 71 71 70 70 70 70 70 70 70 69 68 67 67 66 66 65 63 62 63 63 63 63 62 62 62 63 65 66 65 65 66
52 52 49 47 44 44 45 43 45 45 44 49 51 52 51 52 51 49 48 45 43 43 40 28 33 40 32 34 35 43 47 57 63 65 66 65 65 65 65 64 65 67 67 67 68 68 69 69 69 68 65 64 66 66 67 71 69 69 69 69 70 70 69 69 69 69 70 70 70 70 70 70 70 70 69 69 68 67 67 66 66 65 64 63 62 62 63 62 62 62 62 61 62 64 64 65 66
50 49 49 43 42 41 43 43 45 43 42 47 51 52 51 53 53 50 51 51 49 42 43 40 36 38 40 40 43 50 57 60 63 65 67 65 66 65 64 64 62 64 67 68 67 68 68 70 70 68 63 64 65 65 67 69 69 68 68 68 69 69 68 68 68 68 69 68 68 68 69 70 70 70 69 69 68 67 67 65 65 65 65 63 63 62 62 62 62 62 62 61 62 63 64 66 66
50 47 44 44 40 41 44 42 43 40 44 45 51 51 47 48 53 52 51 50 48 46 42 42 40 49 45 47 54 58 61 62 63 65 66 65 66 66 64 63 63 63 67 67 68 68 68 69 68 67 64 65 65 66 66 68 69 68 67 67 68 67 68 67 66 67 67 66 67 66 68 68 70 69 69 69 67 68 66 65 65 65 65 65 64 63 63 62 62 62 62 61 62 63 67 66 65
48 44 43 41 41 40 41 41 41 42 41 44 49 49 47 47 52 50 51 50 48 49 47 45 39 39 52 57 60 60 62 63 64 65 65 64 65 64 64 64 63 62 64 65 67 67 69 69 68 69 66 66 66 67 67 67 69 69 70 70 69 68 66 67 68 70 69 70 65 68 70 69 68 69 68 69 69 68 67 64 64 64 65 65 66 65 65 63 63 62 62 62 62 65 66 63 63
44 43 42 38 40 41 42 41 41 41 41 42 46 50 48 46 50 51 45 47 47 47 47 47 43 42 50 56 58 61 64 63 64 65 64 64 64 64 64 64 64 63 62 65 66 68 68 68 69 69 69 69 67 67 67 67 67 67 70 69 69 67 69 69 70 69 70 69 69 69 69 68 69 69 68 69 69 64 67 64 64 64 64 65 66 66 66 66 65 64 63 63 64 65 64 62 62
45 43 40 40 42 42 42 41 41 40 42 43 45 49 48 48 48 52 45 41 45 43 42 50 47 43 42 55 56 63 63 63 64 63 63 63 64 64 64 64 63 64 62 64 65 67 67 67 68 68 68 70 68 66 67 66 67 66 66 67 68 69 69 69 69 70 69 69 70 69 69 69 69 68 69 69 69 68 66 63 63 63 64 65 65 66 66 66 66 66 65 66 66 64 63 61 61
44 42 40 39 40 41 40 39 35 33 38 42 45 49 48 48 49 48 46 43 43 42 44 44 47 45 43 45 59 62 63 63 63 64 63 63 64 64 64 64 63 63 63 65 65 66 66 67 68 68 68 68 69 69 68 67 66 66 66 66 66 67 67 68 68 69 69 70 69 69 69 68 69 68 69 69 68 68 67 67 67 67 66 66 64 65 64 65 65 64 64 64 63 63 62 62 62
43 40 40 40 40 41 40 35 31 30 34 36 43 44 45 44 46 47 46 42 39 42 44 46 47 48 48 47 50 61 62 62 63 63 64 63 63 63 65 64 65 64 64 63 64 65 66 67 67 67 68 68 68 69 68 68 68 67 67 67 66 67 67 67 67 68 68 70 69 69 69 68 68 68 68 69 68 67 67 67 66 66 66 65 65 63 63 64 64 63 63 63 62 62 62 62 62
35 37 37 33 34 38 37 32 30 29 30 30 33 40 33 38 44 45 46 45 43 45 48 46 53 51 52 51 49 60 61 61 62 63 63 63 64 64 64 65 64 64 64 63 63 64 67 67 66 66 67 67 68 68 67 68 68 68 67 67 68 67 66 67 66 67 67 67 69 70 69 69 67 67 67 69 68 67 67 66 65 65 66 65 64 63 63 64 63 62 61 62 62 62 62 63 62
36 32 33 32 30 29 30 29 29 28 27 27 29 28 29 32 34 42 43 45 47 47 47 48 51 53 50 47 50 53 60 61 62 62 63 64 64 64 64 64 65 65 63 62 63 64 67 67 67 68 68 67 67 67 67 67 67 65 66 66 67 66 66 66 66 66 67 66 67 67 67 69 68 68 67 67 67 67 67 66 65 65 65 65 65 64 63 62 62 62 63 63 62 62 62 62 62
29 28 30 28 28 28 31 28 27 27 26 27 29 29 28 31 31 32 33 37 41 46 48 49 50 52 53 49 47 48 56 61 61 62 62 61 63 64 66 64 64 65 65 63 64 62 66 68 68 67 67 67 68 68 66 67 66 66 65 66 66 66 66 65 65 66 65 66 65 67 67 67 68 68 68 68 67 67 66 66 65 65 65 65 65 65 64 62 61 62 62 62 62 62 61 62 62
29 27 29 27 26 26 27 29 28 26 26 27 25 24 28 31 33 31 33 31 35 44 46 47 50 50 51 51 50 48 49 54 60 61 62 63 63 64 64 64 64 63 64 64 64 64 64 68 68 67 67 67 66 67 66 66 66 66 66 65 66 65 66 65 65 65 65 64 66 65 67 67 66 66 67 68 68 67 67 66 65 64 65 65 65 65 65 64 62 62 62 62 62 62 62 62 62
29 29 29 27 26 29 32 27 27 30 27 26 24 24 25 31 30 30 36 33 35 40 43 46 49 48 49 50 51 51 50 49 51 56 58 61 62 63 63 64 62 63 63 64 65 64 64 65 66 66 67 66 67 66 67 66 66 65 65 66 65 64 65 65 64 63 65 65 63 66 66 67 66 66 66 65 67 68 66 67 66 65 65 65 65 65 65 65 64 64 62 61 61 61 61 62 62
29 29 28 27 30 31 30 29 29 31 27 27 26 27 27 29 31 23 33 41 41 39 42 43 44 44 46 48 49 51 50 50 48 51 52 57 60 61 62 63 62 63 64 64 64 65 66 65 66 66 67 67 66 67 67 67 66 65 65 65 65 64 64 64 63 62 62 65 65 65 65 65 65 65 66 65 65 66 66 65 66 66 66 65 65 65 65 65 65 64 64 64 63 62 61 62 62
29 28 21 23 24 21 21 25 29 30 25 28 30 26 20 28 24 28 31 31 28 37 39 43 44 44 44 45 47 47 48 49 48 47 48 50 56 60 60 62 63 63 64 64 64 65 65 66 66 66 66 67 66 65 66 66 65 66 64 64 64 65 64 63 62 62 62 63 65 66 65 64 64 65 65 65 65 64 63 66 66 66 65 65 65 66 66 65 65 64 64 64 64 63 62 62 63
30 28 24 20 19 16 23 28 31 27 24 28 25 5 6 17 23 29 30 35 32 29 28 30 36 40 42 45 46 46 47 48 48 48 46 46 47 54 59 61 62 63 63 64 64 65 65 66 66 67 67 66 67 66 65 65 65 65 65 64 63 63 63 63 63 62 63 62 64 64 65 65 64 64 65 65 65 65 64 64 65 66 65 65 65 65 65 65 64 64 64 64 62 62 62 62 62
15 22 24 11 7 0 20 23 30 27 31 32 28 11 7 23 25 29 33 36 36 26 23 24 29 36 37 41 44 46 47 47 48 48 50 48 46 47 56 58 60 62 63 63 63 64 65 66 66 65 66 67 66 66 65 66 66 65 65 64 62 63 62 62 62 63 63 63 64 64 64 64 65 65 66 66 67 67 67 65 65 65 66 66 66 65 65 65 64 63 62 62 62 62 62 62 62
23 3 0 21 5 8 15 21 25 13 31 33 28 18 14 18 20 29 34 34 35 29 26 25 27 31 36 38 41 42 45 47 49 50 51 52 50 46 52 54 57 59 62 62 63 63 64 64 64 64 64 65 66 66 67 66 65 64 64 63 62 63 62 61 61 63 64 63 62 65 66 65 65 66 65 66 66 67 67 67 67 65 65 65 65 66 65 64 63 63 61 62 61 61 62 62 62
18 5 1 2 12 8 8 22 23 26 29 31 26 8 19 16 22 27 32 36 36 30 28 30 33 33 32 34 37 40 43 45 48 49 50 51 52 49 48 50 52 56 59 61 62 62 63 63 63 63 64 64 65 66 66 66 67 65 63 63 64 64 63 62 60 61 63 65 64 62 64 66 66 65 65 65 65 65 66 65 67 66 65 65 65 65 64 64 63 62 60 61 62 59 60 61 61
1 16 3 12 -2 -2 -3 15 24 28 26 22 26 23 17 15 21 23 29 30 29 26 27 29 30 30 31 33 35 35 37 39 41 45 50 51 50 53 51 48 48 51 55 58 61 61 61 62 63 64 64 64 65 65 65 66 66 66 65 64 63 63 64 64 62 61 62 62 64 64 63 63 66 67 66 65 64 64 64 64 65 65 66 65 65 64 63 63 63 61 60 61 62 61 60 60 61
-9 2 1 3 13 8 1 3 18 19 22 22 17 19 19 20 21 22 25 31 30 24 24 24 24 25 26 27 27 27 31 34 36 40 46 50 51 52 52 51 48 48 49 52 57 60 61 62 62 63 64 65 65 65 65 65 66 66 66 66 65 63 63 63 63 62 62 62 60 62 62 62 63 66 67 66 65 64 64 65 65 65 65 65 64 63 63 62 61 60 61 61 61 62 61 62 62
-8 -8 -8 -7 -6 -6 11 15 16 17 9 10 12 10 7 8 13 18 22 24 22 21 24 25 25 25 26 27 28 28 30 29 31 37 43 47 48 50 51 52 52 50 50 50 50 54 56 59 61 62 63 64 65 65 65 65 64 64 64 65 64 64 64 63 62 62 62 62 62 62 62 63 63 63 66 66 66 64 62 64 65 65 64 63 62 63 61 59 60 60 61 61 61 62 62 62 63
8 6 4 1 1 4 16 17 16 23 11 8 9 8 9 11 11 11 13 18 21 21 21 22 23 25 26 26 27 28 28 27 34 37 38 42 44 45 47 50 52 51 50 48 48 51 55 57 59 60 61 63 64 64 64 64 63 63 63 63 64 64 64 64 64 64 64 64 64 63 63 63 63 63 63 64 65 64 63 61 62 63 63 62 61 60 60 60 61 61 61 61 62 62 62 63 63
14 11 8 6 6 7 13 11 16 26 16 6 7 13 11 11 13 16 15 17 19 18 19 20 19 20 22 24 23 24 26 32 35 35 36 38 37 42 44 46 50 50 49 47 47 49 54 57 58 59 60 60 61 63 63 63 63 63 63 63 64 64 63 63 58 55 55 55 57 57 59 60 62 64 62 62 62 65 65 64 63 62 62 61 61 61 61 61 62 62 62 62 62 62 62 62 62
16 11 10 10 12 14 16 17 17 19 20 13 12 13 15 14 14 15 16 16 17 18 19 17 16 18 20 21 22 23 24 26 28 28 34 32 37 41 41 43 46 49 50 50 48 50 52 54 56 57 56 57 60 62 63 62 60 59 61 58 58 51 51 52 53 52 52 51 51 52 53 55 55 55 58 62 64 64 64 64 62 62 62 61 61 62 62 62 62 62 62 62 62 63 62 63 63
15 14 9 5 7 -3 -6 15 22 21 17 11 18 15 15 16 17 18 16 17 17 22 22 21 21 18 17 16 18 21 22 22 23 24 25 28 32 33 38 42 44 49 50 50 49 48 50 51 54 55 53 56 58 60 60 53 52 52 52 52 52 51 49 50 50 51 51 51 50 51 51 52 53 53 52 53 56 58 60 63 64 63 62 62 62 62 62 62 63 62 63 63 63 61 62 62 63
19 17 13 7 10 13 5 10 17 20 18 21 15 13 11 14 18 19 18 17 20 22 23 22 21 24 23 25 27 25 22 21 23 23 25 26 30 32 34 40 43 46 48 49 49 48 50 49 51 52 50 55 56 56 53 48 48 47 47 47 47 48 49 51 50 47 49 49 49 49 50 50 51 52 52 52 52 52 54 57 59 63 65 65 64 63 63 62 63 63 63 64 63 63 61 61 61
11 19 16 15 16 17 10 13 9 10 7 14 13 6 3 11 20 21 12 19 18 20 21 21 21 22 24 23 24 25 28 27 25 24 25 26 28 32 36 42 43 44 45 46 48 47 46 47 47 46 47 50 53 53 50 51 51 49 49 49 48 46 45 48 49 48 47 46 49 49 50 50 49 50 51 51 52 52 52 52 55 56 56 58 61 64 65 65 64 65 64 65 64 62 59 58 59
3 2 16 17 17 18 16 11 11 7 4 6 16 3 -2 9 16 20 21 22 17 16 20 19 20 22 22 23 24 24 25 26 27 27 27 27 29 33 37 40 41 42 43 45 45 44 45 45 45 45 44 48 48 48 49 50 50 50 51 51 49 46 43 42 44 48 48 47 46 45 46 47 46 47 46 47 48 49 51 52 53 53 53 54 56 58 59 59 61 62 63 65 65 64 64 59 59
2 17 14 18 16 16 16 14 10 6 14 14 14 8 4 1 9 15 19 20 19 17 13 16 21 21 21 22 23 24 26 26 27 28 27 28 28 31 33 38 40 40 42 42 43 43 42 42 43 42 42 43 45 47 49 50 49 50 49 48 46 44 43 41 42 43 45 45 44 44 43 44 45 44 46 45 46 47 48 50 52 52 53 53 53 54 55 56 57 58 60 62 64 64 64 61 61
9 19 22 16 15 15 17 16 13 13 11 9 12 14 11 10 13 18 15 16 20 21 17 13 14 19 18 22 22 24 25 26 27 28 28 27 29 31 32 37 39 40 41 41 41 41 42 41 41 41 41 42 43 46 49 51 50 49 48 47 45 43 42 42 42 42 42 43 44 43 43 44 44 44 44 45 45 45 45 48 48 50 51 51 51 52 53 53 54 55 57 58 60 63 63 61 60
20 22 22 21 21 20 19 16 17 14 15 10 12 16 7 5 7 16 18 14 14 14 11 11 13 12 18 19 20 22 23 25 27 26 27 28 29 31 35 38 38 39 40 41 41 41 41 40 40 40 40 41 42 42 43 48 50 49 48 47 44 44 42 41 42 42 42 43 42 43 43 42 42 43 45 45 45 45 45 45 46 46 47 49 51 51 51 51 52 54 55 56 57 57 57 56 58
23 21 19 17 16 18 21 19 17 16 12 12 14 15 11 3 3 3 6 7 8 6 8 9 13 18 17 17 17 20 20 22 25 27 27 28 31 33 36 35 37 38 39 39 39 39 40 40 39 39 39 40 40 41 42 43 44 47 46 46 43 42 42 42 41 42 42 42 41 41 41 41 42 41 42 42 44 45 44 44 45 45 45 46 48 49 51 52 53 54 55 53 53 54 53 53 53
21 19 17 17 15 15 16 15 18 11 7 14 17 16 15 5 3 7 1 8 -0 3 5 8 9 12 16 19 19 18 18 20 23 25 26 29 32 34 35 35 36 36 37 37 39 39 39 39 38 38 39 39 40 41 42 42 44 43 43 44 43 42 41 41 42 42 42 41 40 39 39 39 39 40 40 40 41 43 43 43 44 44 44 45 45 45 46 51 52 51 52 49 49 51 52 50 50
19 19 17 10 6 3 4 10 9 11 6 10 17 18 14 11 8 2 0 6 4 5 8 6 9 9 12 17 19 22 23 23 24 25 27 30 32 33 34 34 36 36 36 36 37 38 38 38 37 38 38 39 39 40 41 42 43 42 42 42 43 43 42 43 43 44 46 45 41 39 38 37 37 38 38 38 40 41 42 42 43 43 43 44 45 45 46 47 46 48 47 47 48 48 49 51 50
18 17 15 11 6 3 1 0 2 1 10 15 14 13 9 11 8 12 10 9 7 9 8 12 10 10 11 12 19 21 24 23 24 26 28 31 32 34 34 35 35 35 35 35 36 37 37 37 37 37 37 38 39 39 39 40 41 41 42 42 42 42 43 44 44 43 43 44 43 42 42 41 38 37 37 37 38 40 41 42 42 43 43 43 44 44 45 46 46 45 46 46 46 46 48 49 49
17 20 17 12 8 3 -1 1 -1 -1 -2 6 11 10 7 11 3 8 10 10 12 10 9 10 13 14 14 15 23 22 23 24 25 26 29 31 33 34 35 35 35 35 34 35 35 36 36 36 37 37 37 37 38 38 38 39 39 39 39 40 40 40 40 40 41 42 43 43 43 40 40 42 43 43 39 38 38 39 40 41 41 41 42 42 43 43 44 44 45 44 44 45 45 47 47 46 47
20 21 21 15 10 9 -2 -4 -2 -0 -2 0 8 5 4 2 9 11 11 11 12 14 14 15 14 14 16 16 17 18 21 23 27 28 29 31 33 34 34 35 34 34 34 35 35 35 36 36 36 36 36 36 37 37 37 37 37 37 38 37 37 37 36 36 36 36 37 38 38 39 39 38 37 38 38 38 38 38 40 41 40 40 41 41 42 42 43 43 44 44 43 44 44 47 46 47 46
13 19 15 14 18 15 11 11 13 8 6 4 8 -0 1 4 1 1 5 3 8 10 12 12 13 15 17 17 18 16 19 25 28 29 29 31 32 33 34 34 33 33 34 34 34 35 35 35 35 35 35 35 35 35 35 35 35 36 36 35 35 35 35 34 33 34 34 34 34 34 34 35 35 35 36 37 37 37 37 38 38 40 41 41 41 41 42 42 43 42 42 42 43 44 44 45 45
21 17 17 18 21 20 15 6 6 5 3 2 2 -1 -3 -2 -2 -1 1 -3 -9 7 10 11 13 16 15 18 19 19 23 26 27 29 30 31 32 33 33 34 33 33 33 33 33 34 34 35 34 34 34 34 34 34 34 34 34 34 34 34 34 34 33 33 33 33 32 32 32 32 32 33 33 34 35 36 35 35 36 36 36 37 39 40 40 40 40 41 41 40 41 40 41 42 42 42 43
17 15 27 17 12 12 15 13 5 4 3 2 3 2 -0 -2 -4 -2 -4 -2 -2 1 3 5 6 8 13 15 17 18 24 28 29 30 31 32 32 33 33 33 33 33 32 32 33 33 34 33 33 33 33 33 33 33 33 33 33 34 34 33 32 32 32 32 33 32 32 32 32 32 32 32 32 33 33 34 34 34 34 35 35 36 37 38 39 39 39 39 40 39 39 39 40 40 40 40 40
15 21 18 21 17 13 10 11 11 6 1 1 1 3 1 3 1 -0 -1 -2 -1 -2 -2 -1 2 1 1 8 16 19 24 26 29 29 31 31 32 32 32 32 32 32 32 32 32 33 32 32 32 32 32 32 32 32 32 31 32 32 32 32 32 31 31 32 31 32 31 31 32 31 31 31 32 32 33 33 33 33 33 34 35 35 36 38 38 38 38 38 38 37 37 38 38 39 39 39 39
12 14 14 17 16 16 12 12 10 8 5 2 0 -1 0 -1 4 4 2 1 -1 5 9 11 8 8 10 16 17 20 23 26 29 29 30 31 31 32 32 32 32 32 32 32 32 32 32 32 31 31 31 31 31 31 31 31 31 31 30 30 30 30 30 30 30 30 30 30 30 31 31 31 31 31 32 32 33 33 33 33 34 35 36 37 37 37 36 35 35 36 36 36 36 37 37 37 38
8 9 10 12 11 8 6 4 10 10 7 4 2 1 5 0 10 8 9 10 12 14 14 15 15 14 16 17 21 21 24 26 27 29 30 30 30 31 32 32 33 32 32 31 32 32 31 31 31 30 30 30 29 29 30 29 29 29 29 28 28 28 29 29 29 29 29 29 30 30 30 30 30 31 32 32 32 32 32 33 33 34 35 36 35 34 34 34 34 34 35 36 35 35 35 35 36